Flag for Saint Kitts and Nevis Weather past 2 weeks in Basseterre, Saint Kitts and Nevis

Now
81 °F

Passing clouds.


Feels Like: 83 °F
Forecast: 78 / 81 °F
Wind: 14 mph from East

Location: Golden Rock

Current Time: Mar 28, 2015 at 8:42:07 AM

Latest Report: Mar 28, 2015 at 8:00 AM


Visibility: N/A

Pressure: 30.12 "Hg

Humidity: 62%

Dew point: 66 °F

Location of BasseterreLocation

Historic Weather in Basseterre — Graph

°F

Basseterre temperature yesterday

Maximum temperature yesterday: 86 °F (at 12:00 PM)
Minimum temperature yesterday: 75 °F (at 8:00 PM)
Average temperature yesterday: 81 °F

Past Weeks' High & Low Weather Summary

 TemperatureHumidityPressure
High86 °F (Mar 25, 12:00 PM)94% (Mar 16, 6:00 AM)30.12 "Hg (Mar 16, 6:00 AM)
Low72 °F (Mar 16, 6:00 AM)48% (Mar 13, 1:00 PM)29.95 "Hg (Mar 16, 2:00 PM)
Average80 °F69%30.03 "Hg
* Reported Mar 13 7:00 AM — Mar 28 7:00 AM, Basseterre, Weather by CustomWeather, © 2015

Note: Actual official high and low records may vary slightly from our data, if they occured in-between our weather recording intervals... More about our weather records

Advertising

Basseterre weather history for previous 24 hours

 ConditionsComfort  
Time TempWeatherWind HumidityBarometerVisibility
7:00 AM
Sat, Mar 28
77 °FPassing clouds.13 mph74%30.09 "HgN/A
6:00 AM77 °FPassing clouds.13 mph74%30.09 "HgN/A
9:00 PM
Fri, Mar 27
77 °FPassing clouds.15 mph79%30.09 "HgN/A
8:00 PM75 °FPassing clouds.14 mph89%30.07 "HgN/A
7:00 PM77 °FPassing clouds.13 mph74%30.07 "HgN/A
6:00 PM79 °FScattered clouds.14 mph74%30.04 "HgN/A
5:00 PM81 °FScattered clouds.18 mph70%30.04 "HgN/A
4:00 PM81 °FPassing clouds.14 mph66%30.04 "HgN/A
3:00 PM82 °FPartly sunny.15 mph62%30.04 "HgN/A
2:00 PM84 °FPassing clouds.21 mph58%30.04 "HgN/A
1:00 PM86 °FPassing clouds.15 mph55%30.07 "HgN/A
12:00 PM86 °FPassing clouds.20 mph55%30.09 "HgN/A
11:00 AM84 °FPassing clouds.17 mph58%30.12 "HgN/A
10:00 AM84 °FPassing clouds.17 mph55%30.12 "HgN/A
9:00 AM82 °FScattered clouds.20 mph66%30.09 "HgN/A
8:00 AM81 °FPassing clouds.16 mph66%30.09 "HgN/A
Weather by CustomWeather, © 2015

See weather overviewHow to use our weather pages